Tracking 28125 objects as of 2-Oct-2023
HD Live streaming from Space Station
objects crossing your sky now

THORAD DELTA 1 DEB

Track THORAD DELTA 1 DEB now!
10-day predictions


NORAD ID: 8307
Int'l Code: 1974-089BQ
Perigee: 1,433.2 km
Apogee: 2,169.7 km
Inclination: 101.1 °
Period: 122.5 minutes
Semi major axis: 8172 km
RCS: 0.1335 m2 (medium)
Launch date: November 15, 1974
Source: United States (US)
Launch site: AIR FORCE WESTERN TEST RANGE (AFWTR)

Note: This is SATELLITE DEBRIS
Your satellite tracking list
Your tracking list is empty




NASA's NSSDC Master Catalog

Two Line Element Set (TLE):
1 08307U 74089BQ  23274.57506281 -.00000001  00000-0  41019-3 0  9998
2 08307 101.1402 132.2499 0450554 187.8874 232.2367 11.75101631 97057
Source of the keplerian elements: AFSPC